| Date | Time | Temp. (oF) | Dew Point (oF) | Rel. Hum. (%) | Press. (in.) | Wind Dir. | Wind Speed (mph) | Hourly Rainfall (in.) |
|
|---|---|---|---|---|---|---|---|---|---|
| 1 | 06/08 | 00:00 | 59 | 59 | 100 | 29.86 | N | 8 | 0.00 |
| 2 | 06/07 | 23:00 | 59 | 59 | 100 | 29.87 | NE | 4 | 0.00 |
| 3 | 06/07 | 22:00 | 59 | 59 | 100 | 29.85 | NNE | 3 | 0.00 |
| 4 | 06/07 | 21:00 | 59 | 59 | 100 | 29.81 | NNW | 4 | 0.00 |
| 5 | 06/07 | 20:00 | 60 | 59 | 100 | 29.81 | NNE | 3 | 0.00 |
| 6 | 06/07 | 19:00 | 61 | 60 | 100 | 29.80 | NNE | 8 | 0.00 |
| 7 | 06/07 | 18:00 | 62 | 62 | 100 | 29.79 | NNE | 7 | 0.00 |
| 8 | 06/07 | 17:00 | 62 | 62 | 100 | 29.78 | NE | 7 | 0.00 |
| 9 | 06/07 | 16:00 | 62 | 62 | 100 | 29.79 | ENE | 6 | 0.01 |
| 10 | 06/07 | 15:00 | 62 | 62 | 100 | 29.80 | N | 4 | 0.02 |
| 11 | 06/07 | 14:00 | 62 | 62 | 100 | 29.83 | NNE | 3 | 0.22 |
| 12 | 06/07 | 13:00 | 62 | 62 | 100 | 29.82 | NE | 6 | 0.21 |
| 13 | 06/07 | 12:00 | 61 | 60 | 100 | 29.86 | ESE | 2 | 0.16 |
| 14 | 06/07 | 11:00 | 60 | 59 | 100 | 29.91 | E | 9 | 0.03 |
| 15 | 06/07 | 10:00 | 60 | 59 | 100 | 29.92 | NE | 4 | 0.04 |
| 16 | 06/07 | 09:00 | 59 | 59 | 100 | 29.95 | NNE | 6 | 0.04 |
| 17 | 06/07 | 08:00 | 59 | 59 | 100 | 29.97 | ENE | 2 | 0.05 |
| 18 | 06/07 | 07:00 | 58 | 57 | 98 | 29.98 | NE | 1 | 0.00 |
| 19 | 06/07 | 06:00 | 59 | 57 | 96 | 29.98 | ENE | 0 | 0.01 |
| 20 | 06/07 | 05:00 | 58 | 57 | 97 | 29.99 | NNE | 2 | 0.00 |
| 21 | 06/07 | 04:00 | 58 | 56 | 96 | 30.00 | NNE | 1 | 0.00 |
| 22 | 06/07 | 03:00 | 57 | 55 | 95 | 30.02 | SSW | 0 | 0.00 |
| 23 | 06/07 | 02:00 | 58 | 56 | 95 | 30.02 | SSW | 0 | 0.00 |
| 24 | 06/07 | 01:00 | 59 | 56 | 91 | 30.05 | SSW | 0 | 0.00 |